Milas, Turkey

9:43 AM +03 on October 22, 2017 (GMT +0300)
Bodrum

Weather History for LTFE - February, 2013

Change the Weather History Date:

Friday, February 1, 2013

  Actual Average Record
Temperature  
Mean Temperature 47 °F -  
Max Temperature 57 °F - - ()
Min Temperature 37 °F - - ()
Degree Days  
Heating Degree Days 18    
Moisture  
Dew Point 36 °F    
Average Humidity 66    
Maximum Humidity 87    
Minimum Humidity 38    
Precipitation  
Precipitation 0.00 in - - ()
Sea Level Pressure  
Sea Level Pressure 29.97 in    
Wind  
Wind Speed 6 mph ()    
Max Wind Speed 14 mph    
Max Gust Speed -    
Visibility 6.2 miles    
Events Rain    
T = Trace of Precipitation, MM = Missing Value Source: Averaged Metar Reports

Daily Weather History Graph

Daily Weather History Graph

Search for Another Location

Airport or City:

Trip Planner

Search our weather history database for the weather conditions in past years. The results will help you decide how hot, cold, wet, or windy it might be!

Date:

Astronomy

Feb. 01, 2013 Rise Set
Actual Time 7:12 AM EET 5:33 PM EET
Civil Twilight 6:44 AM EET 6:01 PM EET
Nautical Twilight 6:13 AM EET 6:32 PM EET
Astronomical Twilight 5:43 AM EET 7:03 PM EET
Moon 11:10 PM EET (2/1) 9:42 AM EET (2/1)
Length of Visible Light 11h 16m
Length of Day
10h 21m
Waning Gibbous, 73% of the Moon is Illuminated
Feb 1
Waning Gibbous
Feb 3
Last Quarter
Feb 10
New
Feb 17
First Quarter
Feb 25
Full

Hourly Weather History & Observations

Time (EET) Temp. Windchill Dew Point Humidity Pressure Visibility Wind Dir Wind Speed Gust Speed Precip Events Conditions
12:20 AM 46.4 °F 42.9 °F 41.0 °F 81% 29.89 in 6.2 mi ENE 6.9 mph - N/A Rain Light Rain Showers
12:50 AM 46.4 °F 42.4 °F 41.0 °F 81% 29.89 in 6.2 mi NNE 8.1 mph - N/A Rain Light Rain Showers
1:20 AM 46.4 °F 41.9 °F 41.0 °F 81% 29.89 in 6.2 mi North 9.2 mph - N/A Rain Light Rain Showers
1:50 AM 46.4 °F 42.4 °F 41.0 °F 81% 29.89 in 6.2 mi NNW 8.1 mph - N/A Rain Light Rain Showers
2:20 AM 48.2 °F - 39.2 °F 71% 29.89 in 6.2 mi North 10.4 mph - N/A Rain Light Rain Showers
2:50 AM 46.4 °F - 39.2 °F 76% 29.89 in 6.2 mi Variable 1.2 mph - N/A   Mostly Cloudy
3:20 AM 46.4 °F 45.2 °F 39.2 °F 76% 29.89 in 6.2 mi SE 3.5 mph - N/A   Mostly Cloudy
3:50 AM 46.4 °F 45.2 °F 37.4 °F 71% 29.89 in 6.2 mi Variable 3.5 mph - N/A   Mostly Cloudy
4:20 AM 44.6 °F 43.1 °F 37.4 °F 76% 29.89 in 6.2 mi North 3.5 mph - N/A   Mostly Cloudy
4:50 AM 46.4 °F 42.9 °F 35.6 °F 66% 29.89 in - NNW 6.9 mph - N/A   Clear
5:20 AM 44.6 °F 40.7 °F 35.6 °F 71% 29.89 in - NW 6.9 mph - N/A   Clear
5:50 AM 46.4 °F 40.7 °F 35.6 °F 66% 29.92 in - North 12.7 mph - N/A   Clear
6:20 AM 44.6 °F 39.7 °F 35.6 °F 71% 29.95 in - NW 9.2 mph - N/A   Clear
6:50 AM 46.4 °F 44.3 °F 33.8 °F 62% 29.95 in - Variable 4.6 mph - N/A   Clear
7:20 AM 46.4 °F 42.4 °F 33.8 °F 62% 29.98 in 6.2 mi NNW 8.1 mph - N/A   Partly Cloudy
7:50 AM 44.6 °F 40.7 °F 35.6 °F 71% 29.98 in 6.2 mi North 6.9 mph - N/A   Partly Cloudy
8:20 AM 44.6 °F 41.4 °F 37.4 °F 76% 29.98 in 6.2 mi East 5.8 mph - N/A   Partly Cloudy
8:50 AM 48.2 °F - 37.4 °F 66% 30.01 in 6.2 mi NNE 5.8 mph - N/A   Partly Cloudy
9:20 AM 50.0 °F - 35.6 °F 58% 30.01 in 6.2 mi NW 4.6 mph - N/A   Partly Cloudy
9:50 AM 51.8 °F - 33.8 °F 50% 29.98 in 6.2 mi NNE 3.5 mph - N/A   Partly Cloudy
10:20 AM 51.8 °F - 35.6 °F 54% 29.98 in 6.2 mi Variable 2.3 mph - N/A   Partly Cloudy
10:50 AM 53.6 °F - 33.8 °F 47% 29.98 in 6.2 mi Variable 4.6 mph - N/A   Partly Cloudy
11:20 AM 53.6 °F - 33.8 °F 47% 30.01 in 6.2 mi Variable 4.6 mph - N/A   Partly Cloudy
11:50 AM 55.4 °F - 33.8 °F 44% 29.98 in 6.2 mi NE 4.6 mph - N/A   Partly Cloudy
12:20 PM 55.4 °F - 33.8 °F 44% 29.98 in 6.2 mi West 8.1 mph - N/A   Scattered Clouds
12:50 PM 55.4 °F - 33.8 °F 44% 29.98 in 6.2 mi WSW 9.2 mph - N/A   Scattered Clouds
1:20 PM 57.2 °F - 33.8 °F 41% 29.98 in 6.2 mi West 9.2 mph - N/A   Scattered Clouds
1:50 PM 57.2 °F - 37.4 °F 48% 29.98 in 6.2 mi West 13.8 mph - N/A   Scattered Clouds
2:20 PM 57.2 °F - 37.4 °F 48% 29.98 in 6.2 mi West 13.8 mph - N/A   Scattered Clouds
2:50 PM 57.2 °F - 33.8 °F 41% 29.98 in 6.2 mi North 11.5 mph - N/A   Scattered Clouds
3:20 PM 57.2 °F - 35.6 °F 44% 29.98 in 6.2 mi NNW 9.2 mph - N/A   Scattered Clouds
3:50 PM 57.2 °F - 32.0 °F 38% 29.98 in 6.2 mi North 9.2 mph - N/A   Scattered Clouds
4:20 PM 55.4 °F - 35.6 °F 47% 29.98 in 6.2 mi West 6.9 mph - N/A   Scattered Clouds
4:50 PM 53.6 °F - 32.0 °F 44% 29.98 in 6.2 mi WSW 6.9 mph - N/A   Scattered Clouds
5:20 PM 51.8 °F - 35.6 °F 54% 30.01 in 6.2 mi West 8.1 mph - N/A   Scattered Clouds
5:50 PM 48.2 °F - 37.4 °F 66% 29.98 in 6.2 mi East 4.6 mph - N/A   Scattered Clouds
6:20 PM 46.4 °F 44.3 °F 39.2 °F 76% 30.01 in 6.2 mi SSE 4.6 mph - N/A   Scattered Clouds
6:50 PM 44.6 °F 42.2 °F 37.4 °F 76% 30.01 in 6.2 mi ESE 4.6 mph - N/A   Scattered Clouds
7:20 PM 42.8 °F - 37.4 °F 81% 30.01 in 6.2 mi Variable 2.3 mph - N/A   Scattered Clouds
7:50 PM 41.0 °F 37.1 °F 35.6 °F 81% 30.01 in 6.2 mi SE 5.8 mph - N/A   Scattered Clouds
8:20 PM 42.8 °F 41.1 °F 35.6 °F 76% 30.01 in 6.2 mi East 3.5 mph - N/A   Scattered Clouds
8:50 PM 39.2 °F 35.9 °F 35.6 °F 87% 30.01 in 6.2 mi ESE 4.6 mph - N/A   Mostly Cloudy
9:20 PM 41.0 °F 39.0 °F 37.4 °F 87% 30.01 in 6.2 mi SSE 3.5 mph - N/A   Mostly Cloudy
9:50 PM 41.0 °F 39.0 °F 37.4 °F 87% 30.01 in 6.2 mi SE 3.5 mph - N/A   Mostly Cloudy
10:20 PM 39.2 °F - 35.6 °F 87% 30.01 in 6.2 mi Calm Calm - N/A   Mostly Cloudy
10:50 PM 39.2 °F - 35.6 °F 87% 30.01 in 6.2 mi ESE 1.2 mph - N/A   Mostly Cloudy
11:20 PM 37.4 °F 33.8 °F 33.8 °F 87% 30.01 in 6.2 mi SE 4.6 mph - N/A   Mostly Cloudy
11:50 PM 37.4 °F 33.8 °F 33.8 °F 87% 30.01 in 6.2 mi East 4.6 mph - N/A   Mostly Cloudy